Satellite: PHARMSAT
Catalog number: 35002
Epoch time:      09308.86539278
Element set:     131
Inclination:      040.4681 deg
RA of node:       118.0871 deg
Eccentricity:    0.0025130
Arg of perigee:   133.5161 deg
Mean anomaly:     226.7750 deg
Mean motion:   15.40210181 rev/day
Decay rate:      3.012e-05 rev/day^2
Epoch rev:            2603
Checksum:              240

Satellite: HAWKSAT1
Catalog number: 35003
Epoch time:      09309.83370206
Element set:     139
Inclination:      040.4609 deg
RA of node:       111.2049 deg
Eccentricity:    0.0024936
Arg of perigee:   146.5926 deg
Mean anomaly:     213.6468 deg
Mean motion:   15.41205902 rev/day
Decay rate:      5.719e-05 rev/day^2
Epoch rev:            2620
Checksum:              272

Satellite: CP6
Catalog number: 35004
Epoch time:      09308.85769066
Element set:    0134
Inclination:      040.4619 deg
RA of node:       117.0158 deg
Eccentricity:    0.0024436
Arg of perigee:   138.5077 deg
Mean anomaly:     221.7592 deg
Mean motion:   15.41332583 rev/day
Decay rate:      6.779e-05 rev/day^2
Epoch rev:           02604
Checksum:              302

Satellite: AEROCUB3
Catalog number: 35005
Epoch time:      09308.87925500
Element set:    0142
Inclination:      040.4744 deg
RA of node:       117.3734 deg
Eccentricity:    0.0024090
Arg of perigee:   135.0336 deg
Mean anomaly:     225.2440 deg
Mean motion:   15.41090888 rev/day
Decay rate:      6.197e-05 rev/day^2
Epoch rev:           02604
Checksum:              270

Satellite: DRAGNSAT
Catalog number: 35690
Epoch time:      09308.88970455
Element set:    0097
Inclination:      051.6439 deg
RA of node:       297.8566 deg
Eccentricity:    0.0006381
Arg of perigee:   083.7478 deg
Mean anomaly:     276.4253 deg
Mean motion:   15.85988572 rev/day
Decay rate:     4.0381e-04 rev/day^2
Epoch rev:           01542
Checksum:              353

Satellite: POLLUX
Catalog number: 35693
Epoch time:      09309.62437395
Element set:      99
Inclination:      051.6405 deg
RA of node:       294.5252 deg
Eccentricity:    0.0005549
Arg of perigee:   051.4676 deg
Mean anomaly:     308.6778 deg
Mean motion:   15.85042312 rev/day
Decay rate:     3.6216e-04 rev/day^2
Epoch rev:            1550
Checksum:              312

Satellite: CASTOR
Catalog number: 35694
Epoch time:      09309.62722070
Element set:      91
Inclination:      051.6417 deg
RA of node:       295.3215 deg
Eccentricity:    0.0005456
Arg of perigee:   049.3497 deg
Mean anomaly:     310.7957 deg
Mean motion:   15.82542855 rev/day
Decay rate:     1.7207e-04 rev/day^2
Epoch rev:            1549
Checksum:              311

Satellite: METEOR-M
Catalog number: 35865
Epoch time:      09308.85962865
Element set:    0047
Inclination:      098.7934 deg
RA of node:       358.8882 deg
Eccentricity:    0.0001534
Arg of perigee:   302.5945 deg
Mean anomaly:     057.5064 deg
Mean motion:   14.21827075 rev/day
Decay rate:       1.76e-06 rev/day^2
Epoch rev:           00684
Checksum:              336

Satellite: STERKH-2
Catalog number: 35866
Epoch time:      09308.84372761
Element set:      51
Inclination:      098.7943 deg
RA of node:       358.9163 deg
Eccentricity:    0.0002365
Arg of perigee:   300.5261 deg
Mean anomaly:     059.5647 deg
Mean motion:   14.22298883 rev/day
Decay rate:       1.78e-06 rev/day^2
Epoch rev:             684
Checksum:              329

Satellite: FREGAT-I
Catalog number: 35867
Epoch time:      09309.81668871
Element set:      58
Inclination:      097.3672 deg
RA of node:       358.9647 deg
Eccentricity:    0.0011690
Arg of perigee:   111.9106 deg
Mean anomaly:     248.3173 deg
Mean motion:   15.22753937 rev/day
Decay rate:      2.268e-05 rev/day^2
Epoch rev:             747
Checksum:              337

/EX






More information about the Keps mailing list